Tampa, FL

11:41 AM EST on December 05, 2016 (GMT -0500)
Tampa International

Weather History for KTPA - January, 2012

Change the Weather History Date:

Wednesday, January 25, 2012

  Actual Average Record
Temperature  
Mean Temperature 75 °F 61 °F  
Max Temperature 84 °F 70 °F 84 °F (1950)
Min Temperature 66 °F 52 °F 29 °F (1905)
Degree Days  
Heating Degree Days 0 6  
Month to date heating degree days 99 150  
Since 1 July heating degree days 154 333  
Cooling Degree Days 10 2  
Month to date cooling degree days 41 48  
Year to date cooling degree days 41 48  
Growing Degree Days 24 (Base 50)    
Moisture  
Dew Point 62 °F    
Average Humidity 67    
Maximum Humidity 93    
Minimum Humidity 40    
Precipitation  
Precipitation 0.00 in 0.09 in 1.40 in (2011)
Month to date precipitation 0.74 1.74  
Year to date precipitation 0.74 1.74  
Sea Level Pressure  
Sea Level Pressure 30.14 in    
Wind  
Wind Speed 5 mph (ESE)    
Max Wind Speed 13 mph    
Max Gust Speed 21 mph    
Visibility 10 miles    
Events      
T = Trace of Precipitation, MM = Missing Value Source: NWS Daily Summary

Daily Weather History Graph

Daily Weather History Graph

Search for Another Location

Airport or City:

Trip Planner

Search our weather history database for the weather conditions in past years. The results will help you decide how hot, cold, wet, or windy it might be!

Date:

Astronomy

Jan. 25, 2012 Rise Set
Actual Time 7:20 AM EST 6:04 PM EST
Civil Twilight 6:55 AM EST 6:29 PM EST
Nautical Twilight 6:27 AM EST 6:57 PM EST
Astronomical Twilight 5:59 AM EST 7:25 PM EST
Moon 8:36 AM EST (1/25) 8:36 PM EST (1/25)
Length of Visible Light 11h 33m
Length of Day
10h 44m
Waxing Crescent, 6% of the Moon is Illuminated
Jan 25
Waxing Crescent
Jan 30
First Quarter
Feb 7
Full
Feb 14
Last Quarter
Feb 21
New

Hourly Weather History & Observations

Time (EST) Temp. Heat Index Dew Point Humidity Pressure Visibility Wind Dir Wind Speed Gust Speed Precip Events Conditions
12:53 AM 69.1 °F - 62.1 °F 78% 30.17 in 10.0 mi East 3.5 mph - N/A   Partly Cloudy
1:53 AM 69.1 °F - 63.0 °F 81% 30.16 in 10.0 mi East 4.6 mph - N/A   Scattered Clouds
2:53 AM 69.1 °F - 63.0 °F 81% 30.16 in 10.0 mi ESE 8.1 mph - N/A   Scattered Clouds
3:53 AM 68.0 °F - 64.0 °F 87% 30.15 in 10.0 mi ESE 4.6 mph - N/A   Partly Cloudy
4:53 AM 66.9 °F - 63.0 °F 87% 30.15 in 10.0 mi ESE 3.5 mph - N/A   Partly Cloudy
5:53 AM 66.2 °F - 62.6 °F 88% 30.16 in 8.0 mi ESE 5.8 mph - N/A   Partly Cloudy
6:53 AM 66.0 °F - 64.0 °F 93% 30.17 in 10.0 mi ESE 5.8 mph - N/A   Partly Cloudy
7:53 AM 66.9 °F - 64.0 °F 90% 30.18 in 10.0 mi ESE 4.6 mph - N/A   Scattered Clouds
8:53 AM 70.0 °F - 64.0 °F 81% 30.18 in 10.0 mi SE 4.6 mph - N/A   Scattered Clouds
9:53 AM 73.9 °F - 64.9 °F 73% 30.19 in 10.0 mi Variable 5.8 mph - N/A   Scattered Clouds
10:53 AM 75.9 °F - 64.0 °F 67% 30.19 in 10.0 mi ESE 10.4 mph 16.1 mph N/A   Scattered Clouds
11:53 AM 79.0 °F - 63.0 °F 58% 30.17 in 10.0 mi SE 10.4 mph - N/A   Scattered Clouds
12:53 PM 80.1 °F 81.1 °F 61.0 °F 52% 30.13 in 10.0 mi ESE 8.1 mph - N/A   Scattered Clouds
1:53 PM 82.4 °F 82.5 °F 59.0 °F 45% 30.11 in 10.0 mi Variable 6.9 mph - N/A   Scattered Clouds
2:53 PM 82.9 °F 82.4 °F 57.0 °F 41% 30.09 in 10.0 mi South 10.4 mph - N/A   Mostly Cloudy
3:53 PM 82.0 °F 81.6 °F 55.9 °F 41% 30.09 in 10.0 mi South 6.9 mph - N/A   Overcast
4:53 PM 78.1 °F - 61.0 °F 56% 30.09 in 10.0 mi WSW 5.8 mph - N/A   Mostly Cloudy
5:53 PM 73.9 °F - 62.1 °F 66% 30.10 in 10.0 mi West 4.6 mph - N/A   Mostly Cloudy
6:53 PM 73.0 °F - 62.1 °F 68% 30.11 in 10.0 mi NW 3.5 mph - N/A   Mostly Cloudy
7:53 PM 72.0 °F - 63.0 °F 73% 30.10 in 10.0 mi North 3.5 mph - N/A   Mostly Cloudy
8:53 PM 72.0 °F - 63.0 °F 73% 30.10 in 10.0 mi Calm Calm - N/A   Scattered Clouds
9:53 PM 71.1 °F - 63.0 °F 75% 30.12 in 10.0 mi East 3.5 mph - N/A   Mostly Cloudy
10:53 PM 71.1 °F - 63.0 °F 75% 30.12 in 10.0 mi ESE 3.5 mph - N/A   Mostly Cloudy
11:53 PM 71.1 °F - 60.1 °F 68% 30.11 in 10.0 mi Calm Calm - N/A   Mostly Cloudy